TimeCDT,TemperatureF,Dew PointF,Humidity,Sea Level PressureIn,VisibilityMPH,Wind Direction,Wind SpeedMPH,Gust SpeedMPH,PrecipitationIn,Events,Conditions,WindDirDegrees,DateUTC
12:43 AM,46.4,44.6,93,30.01,1.8,Calm,Calm,-,N/A,,Clear,0,2013-04-28 05:43:00
12:47 AM,44.6,42.8,93,30.01,0.5,Calm,Calm,-,N/A,Fog,Fog,0,2013-04-28 05:47:00
12:53 AM,45.0,43.0,93,30.01,0.2,Calm,Calm,-,N/A,Fog,Fog,0,2013-04-28 05:53:00
1:12 AM,39.2,39.2,100,30.01,0.2,Calm,Calm,-,N/A,Fog,Fog,0,2013-04-28 06:12:00
1:44 AM,44.6,42.8,93,30.00,1.2,SE,3.5,-,N/A,,Scattered Clouds,140,2013-04-28 06:44:00
1:46 AM,44.6,42.8,93,30.00,3.0,SE,3.5,-,N/A,,Scattered Clouds,140,2013-04-28 06:46:00
1:53 AM,43.0,41.0,93,30.00,3.0,SE,3.5,-,N/A,,Partly Cloudy,140,2013-04-28 06:53:00
2:04 AM,42.8,41.0,93,30.00,1.0,SSE,3.5,-,N/A,,Clear,160,2013-04-28 07:04:00
2:11 AM,39.2,37.4,93,29.99,0.2,Calm,Calm,-,N/A,Fog,Fog,0,2013-04-28 07:11:00
2:27 AM,39.2,37.4,93,29.98,0.2,SSE,4.6,-,N/A,Fog,Fog,150,2013-04-28 07:27:00
2:46 AM,39.2,39.2,100,29.98,0.2,Variable,3.5,-,N/A,Fog,Fog,0,2013-04-28 07:46:00
2:53 AM,39.9,39.0,97,29.99,0.2,West,3.5,-,N/A,Fog,Fog,280,2013-04-28 07:53:00
3:18 AM,39.2,39.2,100,29.97,0.2,Calm,Calm,-,N/A,Fog,Fog,0,2013-04-28 08:18:00
3:53 AM,37.0,36.0,96,29.99,0.2,NNE,3.5,-,N/A,Fog,Fog,30,2013-04-28 08:53:00
4:03 AM,37.4,35.6,93,29.98,0.2,Calm,Calm,-,N/A,Fog,Fog,0,2013-04-28 09:03:00
4:53 AM,37.9,37.0,97,29.99,0.2,Calm,Calm,-,N/A,Fog,Fog,0,2013-04-28 09:53:00
5:53 AM,37.9,37.0,97,29.99,0.2,Calm,Calm,-,N/A,Fog,Fog,0,2013-04-28 10:53:00
6:53 AM,39.0,37.9,96,29.98,0.2,Calm,Calm,-,N/A,Fog,Fog,0,2013-04-28 11:53:00
8:04 AM,42.8,42.8,100,29.98,0.2,South,3.5,-,N/A,Fog,Fog,180,2013-04-28 13:04:00
8:21 AM,44.6,44.6,100,29.98,0.8,SSW,3.5,-,N/A,,Overcast,200,2013-04-28 13:21:00
8:28 AM,44.6,44.6,100,29.98,1.0,Calm,Calm,-,N/A,,Overcast,0,2013-04-28 13:28:00
8:38 AM,46.4,46.4,100,29.98,3.0,SSW,4.6,-,N/A,,Mostly Cloudy,200,2013-04-28 13:38:00
8:51 AM,48.2,46.4,93,29.97,6.0,South,3.5,-,N/A,,Scattered Clouds,180,2013-04-28 13:51:00
8:53 AM,48.0,46.0,93,29.98,6.0,South,4.6,-,N/A,,Partly Cloudy,180,2013-04-28 13:53:00
9:53 AM,57.0,50.0,77,29.96,10.0,South,6.9,-,N/A,,Clear,190,2013-04-28 14:53:00
10:53 AM,63.0,51.1,65,29.95,10.0,SSW,9.2,-,N/A,,Clear,200,2013-04-28 15:53:00
11:53 AM,68.0,48.9,50,29.93,10.0,South,10.4,-,N/A,,Clear,190,2013-04-28 16:53:00
12:53 PM,71.1,48.9,45,29.90,10.0,SSW,12.7,-,N/A,,Clear,200,2013-04-28 17:53:00
1:53 PM,73.9,50.0,43,29.87,10.0,South,17.3,-,N/A,,Clear,190,2013-04-28 18:53:00
2:53 PM,75.0,51.1,43,29.85,10.0,SSW,15.0,23.0,N/A,,Clear,210,2013-04-28 19:53:00
3:53 PM,77.0,48.9,37,29.81,10.0,South,16.1,23.0,N/A,,Clear,180,2013-04-28 20:53:00
4:53 PM,77.0,48.0,36,29.78,10.0,South,12.7,-,N/A,,Clear,190,2013-04-28 21:53:00
5:53 PM,75.9,48.0,37,29.78,10.0,South,15.0,21.9,N/A,,Clear,190,2013-04-28 22:53:00
6:53 PM,73.9,51.1,45,29.77,10.0,South,12.7,-,N/A,,Clear,180,2013-04-28 23:53:00
7:53 PM,70.0,51.1,51,29.77,10.0,South,10.4,-,N/A,,Clear,170,2013-04-29 00:53:00
8:53 PM,66.9,51.1,57,29.78,10.0,SSE,10.4,-,N/A,,Clear,160,2013-04-29 01:53:00
9:53 PM,64.0,51.1,63,29.78,10.0,SSE,10.4,-,N/A,,Clear,160,2013-04-29 02:53:00
10:53 PM,61.0,51.1,70,29.79,10.0,South,8.1,-,N/A,,Clear,170,2013-04-29 03:53:00
11:53 PM,60.1,51.1,72,29.78,10.0,SSE,8.1,-,N/A,,Clear,160,2013-04-29 04:53:00